Location: Lawrence
(38.9720°N, 95.2350°W)
Time: 19:08:08
(UTC-05:00)

JAS-1B - Visible Passes

Search period start: 20 April 2014 00:00
Search period end: 30 April 2014 00:00
Orbit: 911 x 1745 km, 99.0° (Epoch: 20 April)

Date Brightness Start Highest point End Pass type
(mag) Time Alt. Az. Time Alt. Az. Time Alt. Az.
20 Apr 9.4 03:57:21 10° ENE 04:00:12 14° E 04:03:06 10° ESE visible
20 Apr 6.9 05:45:47 10° N 05:51:24 66° WNW 05:57:17 10° SSW visible
21 Apr 9.0 04:15:09 10° NE 04:19:25 21° E 04:23:50 10° SE visible
21 Apr 7.3 06:04:59 10° N 06:10:21 45° WNW 06:15:58 10° SW visible
22 Apr 8.5 04:33:32 10° NE 04:38:34 32° E 04:43:53 10° SSE visible
23 Apr 7.9 04:52:11 10° NNE 04:57:39 47° E 05:03:31 10° S visible
24 Apr 7.2 05:11:02 10° NNE 05:16:43 69° ESE 05:22:52 10° S visible
25 Apr 9.6 03:43:08 10° ENE 03:44:28 11° E 03:45:48 10° ESE visible
25 Apr 6.9 05:30:01 10° NNE 05:35:44 83° WNW 05:41:57 10° SSW visible
26 Apr 9.3 03:59:58 10° NE 04:03:42 17° E 04:07:36 10° SE visible
26 Apr 7.1 05:49:07 10° N 05:54:42 58° WNW 06:00:48 10° SSW visible
27 Apr 8.8 04:18:06 10° NE 04:22:51 26° E 04:27:59 10° SSE visible
28 Apr 8.3 04:36:37 10° NNE 04:41:58 38° E 04:47:51 10° SSE visible
29 Apr 7.7 04:55:21 10° NNE 05:01:02 55° ESE 05:07:23 10° S visible
